Location: Griffin Ranch
(33.6186°N, 110.6622°W)
Time: 01:02:53
(UTC-07:00)

Daily predictions for brighter satellites

Satellite Brightness Start Highest point End
(mag) Time Altitude Azimuth Time Altitude Azimuth Time Altitude Azimuth
CENTAUR R/B 4.3 01:22:24 10° NW 01:26:15 32° NW 01:26:15 32° NW
Cosmos 1943 Rocket 4.1 01:48:48 10° N 01:52:00 25° NE 01:52:00 25° NE
SL-16 R/B 3.8 01:57:55 34° ENE 01:57:55 34° ENE 02:03:22 10° N
Cosmos 2369 Rocket 4.1 01:52:34 10° NNW 01:54:47 24° N 01:54:47 24° N
ADEOS Rocket 4.3 01:58:33 10° NNE 02:01:13 30° NNE 02:01:13 30° NNE
Resurs 1-4 Rocket 3.8 02:06:34 10° NNE 02:09:20 28° NE 02:09:20 28° NE
CZ-3A R/B 4.3 02:06:10 10° NW 02:14:29 44° NE 02:19:37 10° ESE
CZ-2D R/B 3.7 02:10:09 10° NNE 02:13:14 31° NE 02:13:14 31° NE
COSMOS 2406 3.9 02:50:49 48° E 02:50:49 48° E 02:55:48 10° NNE
ARIANE 5 R/B 3.2 02:59:15 10° N 03:03:07 49° NNW 03:03:07 49° NNW
ADEOS II 4.1 03:01:47 10° NE 03:05:48 22° E 03:08:28 15° SE
Cosmos 1300 4.5 03:16:33 29° E 03:16:33 29° E 03:19:35 10° NNE
Cosmos 2285 Rocket 4.0 03:19:51 64° S 03:20:54 81° ESE 03:27:18 10° NNE
Cosmos 1805 Rocket 3.9 03:20:07 10° N 03:24:05 62° NE 03:24:05 62° NE
ADEOS 4.1 03:19:36 10° N 03:23:50 46° NW 03:23:50 46° NW
Cosmos 2221 4.0 03:28:12 29° NNW 03:28:12 29° NNW 03:30:35 10° N
Okean O Rocket 3.9 03:28:34 10° NE 03:31:55 21° E 03:35:04 11° SE
Tiangong 2 4.2 03:35:14 11° ESE 03:35:14 11° ESE 03:35:25 10° ESE
Cosmos 1943 Rocket 4.1 03:32:24 10° NW 03:33:27 15° NW 03:33:27 15° NW
OAO 1 4.4 03:39:09 68° WSW 03:39:54 87° SSE 03:45:26 10° E
SL-16 R/B 3.6 03:43:01 28° WNW 03:43:01 28° WNW 03:46:52 10° NW
USA 234 4.2 03:37:18 10° ENE 03:43:19 38° SE 03:46:55 22° S
Cosmos 2173 Rocket 4.4 03:41:21 20° SSE 03:45:48 63° E 03:52:03 10° NNE
Cosmos 292 Rocket 3.6 03:47:23 67° WSW 03:47:43 70° WNW 03:52:31 10° NNE
MOS 1-B 4.5 03:42:06 10° NNE 03:47:55 73° ESE 03:51:00 29° S
Cosmos 2082 Rocket 4.3 03:44:29 10° SSE 03:48:43 22° E 03:52:57 10° NE
Cosmos 1400 Rocket 4.2 03:44:57 10° NNW 03:46:58 28° NNW 03:46:58 28° NNW
Cosmos 1656 Rocket 3.6 03:43:39 10° NNW 03:49:17 63° WSW 03:51:42 34° S
ASTRO E2 4.2 03:52:31 26° SSE 03:52:31 26° SSE 03:54:36 10° SE
Resurs 1-4 Rocket 3.7 03:47:17 10° NNW 03:50:25 20° WNW 03:50:25 20° WNW
UNKNOWN OBJECT B 4.3 03:49:03 10° N 03:51:34 27° NW 03:51:34 27° NW
Cosmos 372 Rocket 4.0 03:49:43 10° NNW 03:54:45 55° WSW 03:55:27 50° SW
CZ-2D R/B 3.7 03:51:15 10° NNW 03:54:33 19° WNW 03:54:33 19° WNW
Meteor 2-2 Rocket 4.3 03:57:37 25° S 04:01:14 88° E 04:07:16 10° N
Cosmos 546 4.4 04:01:47 73° SSW 04:02:07 85° SE 04:05:57 10° NE
Cosmos 2228 Rocket 3.2 04:00:19 31° S 04:02:24 78° E 04:06:53 10° N
Sich 1 2.9 03:58:52 10° NNW 04:03:13 64° W 04:04:12 48° SSW
Meteor 2-17 Rocket 4.4 04:02:20 30° SSW 04:05:31 69° W 04:11:38 10° N
Hubble Space Telescope 2.1 04:07:24 25° S 04:07:37 26° SSE 04:11:04 10° ESE
CZ-4B R/B 4.0 04:03:29 10° NNE 04:08:47 49° E 04:13:56 10° S
Cosmos 1125 Rocket 4.3 04:05:24 10° NW 04:09:24 31° W 04:09:24 31° W
Cosmos 1459 Rocket 3.9 04:06:48 21° SSW 04:11:06 77° W 04:17:12 10° N
Cosmos 1470 Rocket 4.0 04:10:10 10° N 04:14:26 62° E 04:18:43 10° SSE
Shenzhou-11 Module 2.4 04:17:42 48° S 04:18:03 51° SSE 04:21:03 10° ENE
Cosmos 1726 3.7 04:19:43 21° WNW 04:19:43 21° WNW 04:21:52 10° NNW
Cosmos 2061 Rocket 4.0 04:13:30 15° SSW 04:18:58 76° W 04:25:25 10° N
Cosmos 1515 Rocket 3.4 04:16:48 24° S 04:19:24 81° W 04:23:49 10° N
BREEZE M DEB (TANK) 4.4 04:18:06 10° NNW 04:19:56 23° NE 04:22:27 10° E
Cosmos 1538 Rocket 4.2 04:20:14 28° SW 04:22:51 54° WNW 04:28:07 10° N
Cosmos 1633 Rocket 3.5 04:24:37 10° NNW 04:28:41 38° W 04:30:41 24° SW
ERBS 2.4 04:26:12 10° NW 04:29:38 78° NE 04:33:02 10° SE
In-Cosmos 22 Rocket 4.0 04:26:04 10° NNW 04:31:25 71° W 04:36:41 10° S
Cosmos 923 Rocket 4.1 04:26:38 11° S 04:31:39 77° ESE 04:36:53 10° NNE
NOSS 2 (A) 4.3 04:33:59 10° NW 04:36:27 52° WSW 04:39:26 10° SSE
OE (NEXTSAT) 4.5 04:38:49 26° WSW 04:40:39 69° NNW 04:44:13 10° NE
ADEOS II 2.7 04:40:45 10° N 04:45:32 37° WNW 04:49:24 15° SW
Cosmos 2016 Rocket 4.1 04:41:48 10° SSW 04:47:47 54° W 04:53:45 10° N
Cosmos 1315 Rocket 4.3 04:46:51 10° NW 04:49:37 18° W 04:50:22 17° WSW
Cosmos 1680 Rocket 3.5 04:46:17 10° SSW 04:51:33 89° ESE 04:56:53 10° NNE
Cosmos 1833 Rocket 2.7 04:46:05 10° SSW 04:51:44 85° ESE 04:57:24 10° NNE
Cosmos 1864 Rocket 4.5 04:48:27 10° SSW 04:54:44 72° W 05:00:59 10° N
USA 229 DEB 4.2 04:48:35 10° NW 04:55:11 39° WSW 05:01:52 10° S
USA 229 4.2 04:48:42 10° NW 04:55:18 40° WSW 05:01:59 10° S
EO 1 Del DPAF 4.5 04:52:46 10° SSE 04:56:27 46° ENE 05:00:09 10° N
Cosmos 2112 Rocket 4.1 04:52:08 10° SSW 04:57:25 86° ESE 05:02:46 10° NNE
Cosmos 1725 Rocket 4.0 04:52:50 10° SSW 04:58:58 65° W 05:05:07 10° N
CZ-4B R/B 3.7 04:56:08 10° NNE 04:59:59 90° WNW 05:03:40 10° SSW
NOSS 3-1 (A) 4.3 04:52:53 10° NNW 05:00:46 81° ENE 05:09:20 10° SSE
Okean-O 3.5 04:56:52 10° NNE 05:01:12 51° E 05:05:31 10° S
MTI 4.2 05:01:11 10° SSE 05:04:22 66° ENE 05:07:33 10° N
CZ-4B R/B 4.3 05:01:29 10° NNW 05:05:06 25° WNW 05:08:47 10° SW
Cosmos 2278 3.8 05:02:07 10° NNW 05:07:47 88° ENE 05:13:25 10° SSE
Cosmos 1869 3.5 05:04:14 10° S 05:08:09 75° E 05:12:07 10° N
Okean O Rocket 2.7 05:04:28 10° NNW 05:08:14 27° WNW 05:11:57 10° SW
Cosmos 1933 Rocket 4.3 05:04:46 10° NNW 05:08:44 32° W 05:12:41 10° SSW
COSMOS 2487 2.8 05:05:33 10° SW 05:08:56 45° WNW 05:12:21 10° N
Cosmos 1455 2.6 05:05:28 10° SSW 05:09:00 40° W 05:12:33 10° N
Tiangong 2 1.1 05:07:37 12° WSW 05:10:35 78° NNW 05:13:48 10° ENE
Cosmos 2084 4.0 05:09:05 10° SSW 05:13:09 53° ESE 05:17:00 10° NE
CRYOSAT 2 4.3 05:12:08 10° N 05:16:59 80° W 05:21:49 10° S
Lacrosse 5 3.6 05:12:21 10° NNW 05:17:02 36° NE 05:21:40 10° ESE
Tsikada Rocket 4.1 05:14:13 10° NNW 05:20:24 61° W 05:26:40 10° S
Cosmos 1707 Rocket 3.6 05:19:11 10° S 05:23:37 78° W 05:28:02 10° N
Cosmos 1697 Rocket 3.3 05:19:20 10° NNW 05:24:59 64° ENE 05:30:35 10° SSE
USA 234 3.7 05:20:02 10° NNE 05:26:20 51° NW 05:32:36 10° WSW
